K4HAP Weather Reports


Display with metric or nautical units.
time (UTC)temp
F
wind
direction
speed
MPH
gust
MPH
rain 1hr
in
rain 24hr
in
rain mn
in
humidity
%
barometer
mb
20260504050507 66 38 2.0 5.0 0.00 0.00 0.00 76 1017.7
20260504050020 66 49 2.0 5.0 0.00 0.00 0.00 76 1017.8
20260504045504 66 42 2.0 5.0 0.00 0.00 0.00 76 1017.9
20260504045012 66 31 3.0 5.0 0.00 0.00 0.00 75 1017.9
20260504044534 66 53 2.0 6.0 0.00 0.00 0.00 75 1018.0
20260504044006 66 29 3.0 6.0 0.00 0.00 0.00 75 1018.0
20260504043504 66 39 2.0 6.0 0.00 0.00 0.00 75 1018.1
20260504043022 66 34 1.0 4.0 0.00 0.00 0.00 74 1018.2
20260504042510 66 45 2.0 4.0 0.00 0.00 0.00 74 1018.2
20260504042009 66 56 1.0 5.0 0.00 0.00 0.00 74 1018.1
20260504041522 66 50 2.0 5.0 0.00 0.00 0.00 73 1017.9
20260504041006 66 40 3.0 6.0 0.00 0.00 0.00 73 1018.0
20260504040503 66 18 2.0 6.0 0.00 0.00 0.00 73 1017.9
20260504040022 66 40 3.0 5.0 0.00 0.00 0.00 72 1018.1
20260504035511 66 38 2.0 5.0 0.00 0.00 0.00 72 1018.2
20260504035008 66 13 2.0 8.0 0.00 0.00 0.00 71 1018.2
20260504034512 66 33 2.0 8.0 0.00 0.00 0.00 71 1018.0
20260504034006 66 59 2.0 5.0 0.00 0.00 0.00 71 1017.9
20260504033510 66 52 2.0 6.0 0.00 0.00 0.00 71 1018.0
20260504033036 66 41 3.0 6.0 0.00 0.00 0.00 71 1018.0
20260504032504 66 28 2.0 6.0 0.00 0.00 0.00 71 1017.9
20260504032012 66 49 3.0 5.0 0.00 0.00 0.00 71 1017.9
20260504031524 66 91 3.0 7.0 0.00 0.00 0.00 71 1017.9
20260504031008 66 40 2.0 9.0 0.00 0.00 0.00 70 1017.9
20260504030506 66 52 1.0 9.0 0.00 0.00 0.00 70 1017.9
20260504030025 66 83 3.0 9.0 0.00 0.00 0.00 70 1017.9
20260504025507 66 89 2.0 8.0 0.00 0.00 0.00 70 1018.0
20260504025006 67 35 4.0 8.0 0.00 0.00 0.00 70 1017.9
20260504024522 67 61 3.0 9.0 0.00 0.00 0.00 70 1017.8
20260504024006 67 77 3.0 9.0 0.00 0.00 0.00 69 1017.8
20260504023508 67 72 2.0 8.0 0.00 0.00 0.00 69 1017.9
20260504023016 67 74 3.0 8.0 0.00 0.00 0.00 69 1017.9
20260504022511 67 52 2.0 8.0 0.00 0.00 0.00 69 1017.8
20260504022007 67 57 2.0 8.0 0.00 0.00 0.00 69 1017.9
20260504021513 67 93 3.0 9.0 0.00 0.00 0.00 69 1017.7
20260504021009 67 92 3.0 9.0 0.00 0.00 0.00 69 1017.8
20260504020508 67 68 4.0 9.0 0.00 0.00 0.00 68 1017.7
20260504020031 67 65 2.0 10.0 0.00 0.00 0.00 68 1017.7
20260504015505 67 98 2.0 10.0 0.00 0.00 0.00 68 1017.6
20260504015008 68 76 3.0 10.0 0.00 0.00 0.00 68 1017.6
20260504014524 68 74 4.0 10.0 0.00 0.00 0.00 68 1017.5
20260504014011 68 98 5.0 9.0 0.00 0.00 0.00 67 1017.5
20260504013508 68 78 4.0 9.0 0.00 0.00 0.00 67 1017.5
20260504013029 68 53 5.0 9.0 0.00 0.00 0.00 66 1017.3
20260504012507 68 88 3.0 11.0 0.00 0.00 0.00 66 1017.2
20260504012007 69 80 5.0 11.0 0.00 0.00 0.00 65 1017.1
20260504011518 69 60 4.0 12.0 0.00 0.00 0.00 64 1017.1
20260504011008 69 44 6.0 13.0 0.00 0.00 0.00 64 1017.1
20260504010508 69 61 4.0 13.0 0.00 0.00 0.00 63 1017.0
20260504010023 70 61 4.0 12.0 0.00 0.00 0.00 62 1016.8
20260504005509 70 99 7.0 12.0 0.00 0.00 0.00 62 1016.8
20260504005010 70 55 7.0 12.0 0.00 0.00 0.00 61 1016.7
20260504004516 70 57 4.0 10.0 0.00 0.00 0.00 60 1016.7
20260504004010 70 68 4.0 9.0 0.00 0.00 0.00 60 1016.6
20260504003509 70 69 3.0 9.0 0.00 0.00 0.00 59 1016.6
20260504003030 71 70 3.0 11.0 0.00 0.00 0.00 58 1016.5
20260504002506 71 74 6.0 11.0 0.00 0.00 0.00 57 1016.5
20260504002009 72 22 5.0 12.0 0.00 0.00 0.00 56 1016.6
20260504001524 72 17 7.0 12.0 0.00 0.00 0.00 56 1016.6
20260504001005 72 29 4.0 10.0 0.00 0.00 0.00 56 1016.7
20260504000506 72 44 2.0 12.0 0.00 0.00 0.00 56 1016.7
20260504000023 72 70 6.0 12.0 0.00 0.00 0.00 55 1016.6
20260503235510 72 42 5.0 12.0 0.00 0.00 0.00 56 1016.6
20260503235007 72 11 3.0 10.0 0.00 0.00 0.00 55 1016.6
20260503234526 72 48 5.0 9.0 0.00 0.00 0.00 55 1016.6
20260503234018 73 46 3.0 10.0 0.00 0.00 0.00 55 1016.4
20260503233510 73 37 2.0 11.0 0.00 0.00 0.00 55 1016.2
20260503233002 73 57 6.0 11.0 0.00 0.00 0.00 54 1016.2
20260503232503 73 73 4.0 14.0 0.00 0.00 0.00 54 1016.3
20260503232008 73 65 5.0 14.0 0.00 0.00 0.00 54 1016.3
20260503231502 73 26 3.0 11.0 0.00 0.00 0.00 55 1016.3
20260503231004 73 57 4.0 11.0 0.00 0.00 0.00 54 1016.2
20260503230503 74 79 5.0 11.0 0.00 0.00 0.00 54 1016.2
20260503230004 74 65 4.0 14.0 0.00 0.00 0.00 54 1016.2
20260503225503 75 78 6.0 15.0 0.00 0.00 0.00 54 1016.1
20260503225003 75 99 7.0 15.0 0.00 0.00 0.00 55 1016.2
20260503224503 75 78 7.0 13.0 0.00 0.00 0.00 54 1016.2
20260503224005 75 98 8.0 15.0 0.00 0.00 0.00 54 1016.1
20260503223501 75 92 6.0 15.0 0.00 0.00 0.00 53 1016.1
20260503223006 75 94 7.0 13.0 0.00 0.00 0.00 53 1016.1
20260503222508 75 80 6.0 13.0 0.00 0.00 0.00 54 1016.1
20260503222003 75 94 6.0 12.0 0.00 0.00 0.00 53 1016.2
20260503221503 75 90 4.0 11.0 0.00 0.00 0.00 53 1016.2
20260503221006 75 74 4.0 11.0 0.00 0.00 0.00 52 1016.2
20260503220503 76 79 3.0 11.0 0.00 0.00 0.00 52 1016.1
20260503220008 76 115 3.0 7.0 0.00 0.00 0.00 52 1016.1
20260503215502 76 42 2.0 7.0 0.00 0.00 0.00 53 1016.1
20260503215008 76 69 3.0 11.0 0.00 0.00 0.00 53 1016.1
20260503214502 76 96 5.0 11.0 0.00 0.00 0.00 52 1016.1
20260503214003 76 76 6.0 11.0 0.00 0.00 0.00 53 1016.1
20260503213502 76 44 5.0 12.0 0.00 0.00 0.00 52 1016.0
20260503213010 76 51 7.0 13.0 0.00 0.00 0.00 52 1016.0
20260503212504 76 86 5.0 13.0 0.00 0.00 0.00 52 1016.0
20260503212002 76 80 6.0 13.0 0.00 0.00 0.00 52 1015.9
20260503211514 75 92 1.0 14.0 0.00 0.00 0.00 53 1015.9
20260503211007 75 74 5.0 14.0 0.00 0.00 0.00 53 1015.9
20260503210506 76 86 5.0 12.0 0.00 0.00 0.00 52 1016.0
20260503210012 76 66 3.0 11.0 0.00 0.00 0.00 51 1016.0
20260503205503 77 153 5.0 11.0 0.00 0.00 0.00 51 1016.0
20260503205008 77 69 6.0 14.0 0.00 0.00 0.00 51 1016.2
20260503204506 78 81 7.0 14.0 0.00 0.00 0.00 49 1016.2
20260503204008 78 73 7.0 12.0 0.00 0.00 0.00 48 1016.3
20260503203503 77 29 2.0 10.0 0.00 0.00 0.00 49 1016.2
20260503203003 77 127 3.0 10.0 0.00 0.00 0.00 49 1016.3
20260503202503 77 49 5.0 11.0 0.00 0.00 0.00 51 1016.3
20260503202002 76 59 6.0 11.0 0.00 0.00 0.00 50 1016.4
20260503201509 77 85 3.0 12.0 0.00 0.00 0.00 50 1016.5
20260503201002 77 94 7.0 12.0 0.00 0.00 0.00 50 1016.5
20260503200503 78 42 5.0 12.0 0.00 0.00 0.00 53 1016.5
20260503200012 77 109 6.0 12.0 0.00 0.00 0.00 51 1016.5
20260503195503 76 45 3.0 11.0 0.00 0.00 0.00 51 1016.6
20260503195007 77 51 4.0 13.0 0.00 0.01 0.00 50 1016.7
20260503194526 78 61 6.0 13.0 0.00 0.02 0.00 50 1016.8
20260503194004 79 82 7.0 13.0 0.00 0.04 0.00 49 1016.9
20260503193506 78 360 4.0 11.0 0.00 0.06 0.00 50 1017.0
20260503193017 76 86 4.0 10.0 0.00 0.07 0.00 53 1017.0
20260503192506 76 128 3.0 11.0 0.00 0.07 0.00 51 1017.1
20260503192004 77 97 6.0 13.0 0.00 0.09 0.00 51 1017.3
20260503191515 78 46 7.0 13.0 0.00 0.10 0.00 50 1017.3
20260503191003 78 34 3.0 11.0 0.00 0.12 0.00 51 1017.5
20260503190504 77 33 4.0 10.0 0.00 0.14 0.00 53 1017.6
20260503190016 77 55 1.0 11.0 0.00 0.15 0.00 54 1017.6
20260503185506 78 60 5.0 11.0 0.00 0.16 0.00 50 1017.8
20260503185005 77 34 6.0 10.0 0.00 0.17 0.00 53 1017.9
20260503184510 77 350 3.0 11.0 0.00 0.18 0.00 53 1017.9
20260503184006 76 16 5.0 11.0 0.00 0.19 0.00 54 1018.0
20260503183510 75 12 1.0 11.0 0.00 0.19 0.00 56 1017.9
20260503183023 76 109 4.0 11.0 0.00 0.20 0.00 52 1018.0
20260503182503 76 9 2.0 10.0 0.00 0.21 0.00 56 1018.0
20260503182007 76 21 4.0 14.0 0.00 0.24 0.00 57 1018.1
20260503181528 76 40 8.0 14.0 0.00 0.32 0.00 55 1018.1
20260503181004 77 67 4.0 15.0 0.00 0.41 0.00 53 1018.1
20260503180504 76 47 7.0 15.0 0.00 0.50 0.00 55 1018.2
20260503180019 77 52 6.0 14.0 0.00 0.52 0.00 55 1018.2
20260503175510 76 40 9.0 15.0 0.00 0.52 0.00 55 1018.3
20260503175009 76 80 7.0 15.0 0.00 0.52 0.00 56 1018.4
20260503174506 75 37 8.0 13.0 0.00 0.52 0.00 58 1018.5
20260503174006 75 38 7.0 12.0 0.00 0.52 0.00 57 1018.5
20260503173503 75 70 5.0 10.0 0.00 0.52 0.00 58 1018.5
20260503173036 74 29 3.0 14.0 0.00 0.52 0.00 61 1018.6
20260503172506 76 90 8.0 14.0 0.00 0.52 0.00 57 1018.6
20260503172007 75 13 4.0 11.0 0.00 0.52 0.00 61 1018.6
20260503171512 75 27 5.0 11.0 0.00 0.52 0.00 61 1018.7
20260503171004 75 73 6.0 13.0 0.00 0.52 0.00 59 1018.6
20260503170505 75 57 9.0 16.0 0.00 0.52 0.00 59 1018.8
20260503151003 70 15 6.0 17.0 0.00 0.52 0.00 68 1019.1
20260503150510 70 61 10.0 17.0 0.00 0.52 0.00 69 1018.9
20260503131004 64 30 5.0 11.0 0.00 0.52 0.00 84 1018.4
20260503130508 63 22 3.0 11.0 0.00 0.52 0.00 86 1018.3
20260503110505 59 5 6.0 9.0 0.00 0.52 0.00 92 1017.3
20260503090508 59 315 4.0 9.0 0.00 0.52 0.00 91 1016.2
20260503081524 60 347 3.0 6.0 0.00 0.52 0.00 90 1015.8
20260503081009 60 351 3.0 6.0 0.00 0.52 0.00 89 1015.8
20260503080506 60 360 2.0 9.0 0.00 0.52 0.00 89 1015.8